User: anonymous   Login
Location: Exeidioux
(45.6312°N, 1.6819°E)
Time: 00:55:48
(UTC+00:00)
Language:

FALCON 9 DEB - Orbit

View from above orbital plane
View from above orbital plane
View from above satellite
View from above satellite

Ground track
Ground track

The orbit data is extracted from the following two-line orbital elements,

1 44295U 19029BN  21136.20305062  .00002469  00000-0  58693-4 0  9992
2 44295  53.0014 334.3578 0009885  60.5277 299.6713 15.45918738112922
Epoch (UTC): 16 May 2021 04:52:23
Eccentricity: 0.0009885
inclination: 53.0014°
perigee height: 422 km
apogee height: 435 km
right ascension of ascending node: 334.3578°
argument of perigee: 60.5277°
revolutions per day: 15.45918738
mean anomaly at epoch: 299.6713°
orbit number at epoch: 11292

The dashed part of the orbit path shows where the satellite is in the earth's shadow,  

DLR